Regional Weather Roundup
Issued by NWS San Angelo, TX

Home | Current Version | Previous Version | Text Only | Print | Product List | Glossary On
Versions: 1 2 3 4 5 6 7 8 9 10 11 12 13 14 15 16 17 18 19 20 21 22 23 24 25 26 27 28 29 30 31 32 33 34 35 36 37 38 39 40 41 42 43 44 45 46 47 48 49 50
000
ASUS44 KSJT 270402
RWRSJT
WEST CENTRAL TEXAS REGIONAL WEATHER ROUNDUP
NATIONAL WEATHER SERVICE SAN ANGELO TX
1000 PM CST THU FEB 26 2015

NOTE: "FAIR" INDICATES FEW OR NO CLOUDS BELOW 12,000 FEET WITH NO
SIGNIFICANT WEATHER AND/OR OBSTRUCTIONS TO VISIBILITY.

TXZ049-054-064>066-071>073-076>078-098-099-113-114-127-128-139-140-
154-155-168>170-270500
...LOCATIONS ACROSS WEST CENTRAL TEXAS...

CITY           SKY/WX    TMP DP  RH WIND       PRES   REMARKS
SAN ANGELO     CLOUDY    30  18  60 NE16      30.34R WCI  19
ABILENE        CLOUDY    28  16  60 NE8       30.38S WCI  20
DYESS AFB      NOT AVBL
JUNCTION       CLOUDY    30  20  66 NE13      30.31S WCI  20
SWEETWATER     NOT AVBL
BROWNWOOD      NOT AVBL
COLEMAN        NOT AVBL
SONORA         CLOUDY    30  19  64 NE15      30.33R WCI  19
OZONA          NOT AVBL
BRADY          CLOUDY    28  18  64 NE13      30.32S WCI  18
$$

TEXAS PANHANDLE/OKLAHOMA PANHANDLE

CITY           SKY/WX    TMP DP  RH WIND       PRES   REMARKS
AMARILLO       CLOUDY    21   5  50 E13       30.30S WCI   9
BORGER         CLOUDY    23   5  46 NE10      30.34S WCI  12
CANADIAN       CLOUDY    24   3  39 NE8       30.41R WCI  16
DALHART        FLURRIES  20  11  68 E16       30.27F WCI   6
DUMAS          CLOUDY    20   8  61 E9        30.30S WCI   9
GUYMON         NOT AVBL
HEREFORD       NOT AVBL
PAMPA          NOT AVBL
PERRYTON       NOT AVBL
$$

SOUTHERN PANHANDLE/SOUTH PLAINS/ROLLING PLAINS

CITY           SKY/WX    TMP DP  RH WIND       PRES   REMARKS
LUBBOCK        CLOUDY    23  14  68 E12       30.29S WCI  12
SNYDER         NOT AVBL
CHILDRESS      CLOUDY    27   2  34 NE13      30.43R WCI  16
SEMINOLE       CLOUDY    26  13  57 E16       30.26F WCI  14
$$

PERMIAN BASIN

CITY           SKY/WX    TMP DP  RH WIND       PRES   REMARKS
MIDLAND        CLOUDY    28  16  60 NE15      30.28R WCI  16
ODESSA         CLOUDY    28  16  60 E17       30.26F WCI  16
WINK           CLOUDY    30  17  58 E13       30.25S WCI  20
$$

FAR WEST/SOUTHWEST MOUNTAINS/TRANS PECOS

CITY           SKY/WX    TMP DP  RH WIND       PRES   REMARKS
ALPINE         NOT AVBL
DRYDEN           N/A     35  24  64 NE16      30.22F WCI  25
EL PASO        PTCLDY    35  25  66 E12       30.00R WCI  27
FORT STOCKTON  CLOUDY    28  21  75 NE12      30.25R WCI  18
GUADALUPE PASS FRZ RAIN  22  20  92 E38       30.01R VSB 3/4 WCI   2
MARFA          CLOUDY    27  23  86 NE16      30.10F WCI  14
PECOS          CLOUDY    30  22  70 E15       30.27F WCI  19
$$

DALLAS/FORT WORTH METROPLEX

CITY           SKY/WX    TMP DP  RH WIND       PRES   REMARKS
DFW AIRPORT    CLOUDY    32  14  47 N20G28    30.41R WCI  20
FTW MEACHAM    CLOUDY    34  18  52 N10       30.42R WCI  26
DAL-EXECUTIVE  CLOUDY    33  15  47 N12       30.39R WCI  24
GRAND PRAIRIE  CLOUDY    33  19  56 N17G25    30.42R WCI  22
ADDISON        CLOUDY    32  12  43 N15       30.43R WCI  22
MESQUITE       CLOUDY    32  16  51 N14G20    30.42R WCI  22
LANCASTER      CLOUDY    33  16  48 N9G16     30.41R WCI  26
$$

NORTH CENTRAL TEXAS

CITY           SKY/WX    TMP DP  RH WIND       PRES   REMARKS
SHRMAN/DENISON CLOUDY    32  17  55 NE12G17   30.46R WCI  23
GAINESVILLE    NOT AVBL
BRIDGEPORT     CLOUDY    32  15  50 NE13      30.45S WCI  22
DENTON         CLOUDY    32  13  45 NE17      30.44R WCI  21
WAXAHACHIE     CLOUDY    33  21  61 N9        30.40S WCI  25
GRANBURY       CLOUDY    35  19  53 N10       30.43R WCI  27
$$

WESTERN NORTH TEXAS

CITY           SKY/WX    TMP DP  RH WIND       PRES   REMARKS
WICHITA FALLS  MOCLDY    28   6  39 NE14      30.44S WCI  17
VERNON         MOCLDY    28  -3  25 NE8       30.47R WCI  20
BRECKENRIDGE   NOT AVBL
COMANCHE       CLOUDY    31  20  64 N12       30.37F WCI  22
$$

CENTRAL AND SOUTH CENTRAL TEXAS

CITY           SKY/WX    TMP DP  RH WIND       PRES   REMARKS
AUSTIN/BERGSTM CLOUDY    38  23  55 N22G29    30.35R WCI  27
WACO           CLOUDY    35  22  58 N9        30.40R WCI  28
HILLSBORO      NOT AVBL
TEMPLE         CLOUDY    36  18  48 N13       30.37R WCI  27
KILLEEN-GRAY   NOT AVBL
FORT HOOD      NOT AVBL
GEORGETOWN     CLOUDY    36  21  55 N14G20    30.37R WCI  27
LAGO VISTA     CLOUDY    35  22  59 NE13G18   30.34R WCI  27
SAN MARCOS     CLEAR     36  21  55 NE18      30.34R WCI  25
NEW BRAUNFELS  CLEAR     37  27  67 N14       30.32R WCI  28
RANDOLPH AFB   NOT AVBL
SAN ANTONIO    PTCLDY    38  27  64 N15G23    30.31R WCI  29
STINSON        CLEAR     39  28  64 NE15G24   30.30R WCI  31
PLEASANTON     NOT AVBL
LA GRANGE      NOT AVBL
GIDDINGS       CLEAR     36  26  66 N8        30.37S WCI  30
$$

EAST TEXAS

CITY           SKY/WX    TMP DP  RH WIND       PRES   REMARKS
PARIS          CLOUDY    30  14  51 N14       30.43R WCI  20
CLARKSVILLE    NOT AVBL
TYLER          CLOUDY    35  20  54 N8        30.38R WCI  29
LONGVIEW       CLOUDY    36  24  62 N9        30.37R WCI  29
PALESTINE      MOCLDY    36  26  66 N10       30.38R WCI  28
NACOGDOCHES    PTCLDY    30  27  86 N3        30.37R
$$

TEXAS HILL COUNTRY AND EDWARDS PLATEAU

CITY           SKY/WX    TMP DP  RH WIND       PRES   REMARKS
LLANO          NOT AVBL
HORSESHOE BAY  CLOUDY    34  23  63 N5        30.36R WCI  30
KERRVILLE      CLOUDY    32  25  74 NE14      30.30S WCI  22
FREDERICKSBRG  NOT AVBL
ROCKSPRINGS    NOT AVBL
HONDO          CLOUDY    38  28  67 NE14      30.30R WCI  30
UVALDE         CLOUDY    38  28  69 NE13      30.29R WCI  30
DEL RIO        CLOUDY    42  26  53 N7        30.28R WCI  38
$$

SOUTHEAST TEXAS

CITY           SKY/WX    TMP DP  RH WIND       PRES   REMARKS
COLLEGE STN    PTCLDY    37  25  61 N12       30.34R WCI  29
CALDWELL       NOT AVBL
CROCKETT       NOT AVBL
BRENHAM        NOT AVBL
HUNTSVILLE     CLOUDY    35  29  78 VRB3      30.33R
CONROE         MOCLDY    36  29  75 N8        30.34R WCI  30
HOUSTON BUSH   MOCLDY    40  33  76 N14       30.32R WCI  32
HOUSTON HOBBY  CLOUDY    41  34  76 N17       30.30R WCI  32
PERLAND        PTCLDY    42  35  76 NE12      30.31R WCI  36
WHARTON        NOT AVBL
$$

THE UPPER TEXAS COAST

CITY           SKY/WX    TMP DP  RH WIND       PRES   REMARKS
ORANGE         NOT AVBL
PORT ARTHUR    PTCLDY    41  35  79 N14       30.29R WCI  33
GALVESTON      PTCLDY    44  38  79 N21       30.30R WCI  36
ANGLETON       CLEAR     40  35  83 N13       30.29R WCI  32
BAY CITY       CLEAR     44  38  79 N12G17    30.28R WCI  39
$$

TEXAS COASTAL BEND, RIO GRANDE PLAINS DEEP SOUTH TEXAS

CITY           SKY/WX    TMP DP  RH WIND       PRES   REMARKS
VICTORIA       CLEAR     42  36  79 N14       30.29R WCI  35
BEEVILLE       FAIR      44  36  72 NE13      30.27R WCI  38
ROCKPORT       CLEAR     48  38  68 N14       30.26R
PORT ARANSAS   NOT AVBL
PORT LAVACA    CLEAR     44  37  78 N14       30.28R WCI  37
CORPUS CHRISTI PTCLDY    50  39  66 NE16      30.26R
KINGSVILLE NAS MOCLDY    48  41  76 NE9       30.24R
COTULLA        CLEAR     44  33  65 NE16G25   30.27R WCI  37
LAREDO         CLOUDY    55  36  49 E15       30.22R
BROWNSVILLE    CLEAR     56  48  74 NE14      30.17R
PORT ISABEL    PTCLDY    57  48  72 NE13      30.19R
HEBBRONVILLE   NOT AVBL
MCALLEN        CLEAR     54  45  71 NE8       30.20R
WESLACO        NOT AVBL
FALFURRIAS     CLEAR     49  41  72 NE8       30.22R
EDINBURG       CLEAR     53  45  75 NE10      30.20R
$$


USA.gov is the U.S. government's official web portal to all federal, state and local government web resources and services.